Mansfield, OH

11:26 PM EDT on September 22, 2017 (GMT -0400)
Mansfield Lahm Regional

Weather History for KMFD - November, 2013

Change the Weather History Date:

Wednesday, November 20, 2013

  Actual Average Record
Temperature  
Mean Temperature 36 °F 40 °F  
Max Temperature 45 °F 47 °F 72 °F (1931)
Min Temperature 26 °F 32 °F 10 °F (1951)
Degree Days  
Heating Degree Days 29 25  
Month to date heating degree days 456 434  
Since 1 July heating degree days 972 1002  
Cooling Degree Days 0 0  
Month to date cooling degree days 0 0  
Year to date cooling degree days 741 632  
Moisture  
Dew Point 23 °F    
Average Humidity 63    
Maximum Humidity 81    
Minimum Humidity 45    
Precipitation  
Precipitation 0.00 in 0.13 in 1.62 in (1950)
Month to date precipitation 1.91 2.54  
Year to date precipitation 38.50 39.63  
Snow  
Snow 0.00 in 0.10 in - ()
Month to date snowfall 0.2 1.0  
Since 1 July snowfall 0.2 1.5  
Since 1 September snowfall 0.2 1.5  
Snow Depth 0.00 in    
Sea Level Pressure  
Sea Level Pressure 30.36 in    
Wind  
Wind Speed 9 mph (ESE)    
Max Wind Speed 20 mph    
Max Gust Speed 25 mph    
Visibility 10 miles    
Events      
T = Trace of Precipitation, MM = Missing Value Source: NWS Daily Summary

Daily Weather History Graph

Daily Weather History Graph

Search for Another Location

Airport or City:

Trip Planner

Search our weather history database for the weather conditions in past years. The results will help you decide how hot, cold, wet, or windy it might be!

Date:

Astronomy

Nov. 20, 2013 Rise Set
Actual Time 7:23 AM EST 5:07 PM EST
Civil Twilight 6:53 AM EST 5:37 PM EST
Nautical Twilight 6:20 AM EST 6:11 PM EST
Astronomical Twilight 5:47 AM EST 6:43 PM EST
Moon 7:49 PM EST (11/20) 9:47 AM EST (11/20)
Length of Visible Light 10h 44m
Length of Day
9h 44m
Waning Gibbous, 91% of the Moon is Illuminated
Nov 20
Waning Gibbous
Nov 25
Last Quarter
Dec 2
New
Dec 9
First Quarter
Dec 17
Full

Hourly Weather History & Observations

Time (EST) Temp. Windchill Dew Point Humidity Pressure Visibility Wind Dir Wind Speed Gust Speed Precip Events Conditions
12:52 AM 27.0 °F 20.5 °F 21.0 °F 78% 30.40 in 10.0 mi East 5.8 mph - N/A   Clear
1:52 AM 27.0 °F 21.6 °F 21.0 °F 78% 30.40 in 10.0 mi ESE 4.6 mph - N/A   Clear
2:52 AM 26.1 °F 19.4 °F 21.0 °F 81% 30.41 in 10.0 mi East 5.8 mph - N/A   Clear
3:52 AM 27.0 °F 18.7 °F 21.9 °F 81% 30.40 in 10.0 mi East 8.1 mph - N/A   Clear
4:52 AM 26.1 °F 18.4 °F 21.9 °F 84% 30.41 in 10.0 mi ESE 6.9 mph - N/A   Clear
5:52 AM 27.0 °F 18.7 °F 21.9 °F 81% 30.42 in 10.0 mi East 8.1 mph - N/A   Clear
6:52 AM 27.0 °F 18.0 °F 21.9 °F 81% 30.42 in 10.0 mi East 9.2 mph - N/A   Clear
7:52 AM 28.0 °F 18.1 °F 21.9 °F 78% 30.42 in 10.0 mi East 11.5 mph - N/A   Clear
8:52 AM 30.9 °F 20.2 °F 24.1 °F 76% 30.42 in 10.0 mi ESE 15.0 mph - N/A   Clear
9:52 AM 34.0 °F 25.0 °F 23.0 °F 64% 30.41 in 10.0 mi ESE 12.7 mph - N/A   Clear
10:52 AM 37.9 °F 29.6 °F 23.0 °F 55% 30.40 in 10.0 mi SE 13.8 mph - N/A   Clear
11:52 AM 39.9 °F 32.9 °F 24.1 °F 53% 30.38 in 10.0 mi ESE 11.5 mph - N/A   Clear
12:52 PM 42.1 °F 35.2 °F 25.0 °F 51% 30.35 in 10.0 mi ESE 12.7 mph - N/A   Clear
1:52 PM 44.1 °F 37.7 °F 26.1 °F 49% 30.33 in 10.0 mi East 12.7 mph - N/A   Clear
2:52 PM 44.1 °F 37.1 °F 25.0 °F 47% 30.31 in 10.0 mi ESE 15.0 mph - N/A   Clear
3:52 PM 45.0 °F 38.5 °F 25.0 °F 46% 30.30 in 10.0 mi SE 13.8 mph - N/A   Clear
4:52 PM 39.9 °F 32.9 °F 24.1 °F 53% 30.31 in 10.0 mi ESE 11.5 mph - N/A   Clear
5:52 PM 36.0 °F 31.1 °F 24.1 °F 62% 30.32 in 10.0 mi ESE 5.8 mph - N/A   Clear
6:52 PM 36.0 °F 31.1 °F 23.0 °F 59% 30.33 in 10.0 mi SE 5.8 mph - N/A   Clear
7:52 PM 36.0 °F 30.3 °F 21.9 °F 57% 30.32 in 10.0 mi SE 6.9 mph - N/A   Clear
8:52 PM 36.0 °F 30.3 °F 21.9 °F 57% 30.31 in 10.0 mi SE 6.9 mph - N/A   Clear
9:52 PM 36.0 °F 29.6 °F 21.0 °F 55% 30.31 in 10.0 mi SSE 8.1 mph - N/A   Clear
10:52 PM 37.9 °F 32.1 °F 21.0 °F 51% 30.30 in 10.0 mi SSE 8.1 mph - N/A   Clear
11:52 PM 37.9 °F 32.7 °F 19.9 °F 48% 30.31 in 10.0 mi SSE 6.9 mph - N/A   Clear